HTX225 GMAD-LPMA

Flight info

Callsign HTX225
Flight time 1h 11m
Altitude 32000
Route MOGBA DCT LEPRU DCT EKNOT
Aircraft B738/M-SDE2E3FGHIRWXY/LB1

Departure

Time 2026-05-04 14:37
Airport Al Massira Airport (GMAD)

Arrival

Time 2026-05-04 15:49
Airport Cristiano Ronaldo International Airport (LPMA)
Time Latitude Longitude Altitude Speed Heading
2026-05-04 14:08 30.32880 -9.41095 230 ft 0 kts
2026-05-04 14:25 30.32876 -9.41095 230 ft 3 kts
2026-05-04 14:26 30.32850 -9.41098 233 ft 4 kts 13°
2026-05-04 14:26 30.32825 -9.41108 233 ft 4 kts 37°
2026-05-04 14:26 30.32813 -9.41121 231 ft 4 kts 71°
2026-05-04 14:26 30.32811 -9.41132 234 ft 1 kts 91°
2026-05-04 14:30 30.32811 -9.41119 231 ft 5 kts 91°
2026-05-04 14:31 30.32809 -9.41071 230 ft 7 kts 92°
2026-05-04 14:31 30.32807 -9.40936 230 ft 15 kts 91°
2026-05-04 14:32 30.32759 -9.40668 230 ft 18 kts 162°
2026-05-04 14:32 30.32633 -9.40667 230 ft 18 kts 182°
2026-05-04 14:32 30.32615 -9.40667 230 ft 18 kts 181°
2026-05-04 14:32 30.32554 -9.40669 232 ft 17 kts 182°
2026-05-04 14:33 30.32483 -9.40666 230 ft 17 kts 164°
2026-05-04 14:33 30.32437 -9.40557 230 ft 16 kts 90°
2026-05-04 14:33 30.32433 -9.40428 230 ft 16 kts 91°
2026-05-04 14:34 30.32430 -9.40304 230 ft 15 kts 92°
2026-05-04 14:34 30.32426 -9.40185 230 ft 14 kts 92°
2026-05-04 14:34 30.32425 -9.40071 230 ft 16 kts 91°
2026-05-04 14:34 30.32421 -9.39889 230 ft 28 kts 91°
2026-05-04 14:35 30.32417 -9.39677 230 ft 20 kts 91°
2026-05-04 14:35 30.32401 -9.39519 233 ft 20 kts 124°
2026-05-04 14:35 30.32325 -9.39495 230 ft 0 kts 181°
2026-05-04 14:36 30.32300 -9.39496 230 ft 12 kts 182°
2026-05-04 14:36 30.32224 -9.39547 230 ft 14 kts 263°
2026-05-04 14:36 30.32227 -9.39664 230 ft 24 kts 275°
2026-05-04 14:36 30.32237 -9.40172 230 ft 102 kts 272°
2026-05-04 14:37 30.32248 -9.41255 273 ft 162 kts 267°
2026-05-04 14:37 30.32337 -9.42672 723 ft 189 kts 273°
2026-05-04 14:37 30.32470 -9.44221 1350 ft 195 kts 272°
2026-05-04 14:37 30.32535 -9.45740 2373 ft 190 kts 272°
2026-05-04 14:38 30.32589 -9.47345 2689 ft 212 kts 275°
2026-05-04 14:38 30.32471 -9.49160 2876 ft 244 kts 254°
2026-05-04 14:38 30.31586 -9.50947 3340 ft 266 kts 233°
2026-05-04 14:38 30.30312 -9.52533 4135 ft 271 kts 229°
2026-05-04 14:39 30.28997 -9.54106 4978 ft 274 kts 228°
2026-05-04 14:39 30.27709 -9.55695 5824 ft 274 kts 236°
2026-05-04 14:39 30.26932 -9.57680 6644 ft 270 kts 257°
2026-05-04 14:40 30.26029 -9.61922 8263 ft 272 kts 258°
2026-05-04 14:40 30.25567 -9.64054 9100 ft 273 kts 258°
2026-05-04 14:40 30.25104 -9.66167 9921 ft 274 kts 258°
2026-05-04 14:40 30.24638 -9.68343 10431 ft 286 kts 261°
2026-05-04 14:41 30.24772 -9.70693 10568 ft 307 kts 290°
2026-05-04 14:41 30.26043 -9.72770 10738 ft 332 kts 319°
2026-05-04 14:41 30.30368 -9.75128 11719 ft 352 kts 333°
2026-05-04 14:42 30.34891 -9.77420 13004 ft 363 kts 344°
2026-05-04 14:42 30.37455 -9.77626 13668 ft 373 kts 359°
2026-05-04 14:42 30.40067 -9.77397 14265 ft 378 kts
2026-05-04 14:43 30.42708 -9.77114 14830 ft 384 kts
2026-05-04 14:43 30.45388 -9.76844 15416 ft 388 kts
2026-05-04 14:43 30.48102 -9.76598 16016 ft 392 kts
2026-05-04 14:43 30.50807 -9.76389 16584 ft 395 kts 356°
2026-05-04 14:44 30.53493 -9.76892 17123 ft 390 kts 334°
2026-05-04 14:44 30.55800 -9.78457 17727 ft 383 kts 315°
2026-05-04 14:44 30.57597 -9.80732 18314 ft 380 kts 300°
2026-05-04 14:44 30.58757 -9.83473 18856 ft 378 kts 288°
2026-05-04 14:45 30.59663 -9.86339 19448 ft 378 kts 287°
2026-05-04 14:45 30.60520 -9.89195 20012 ft 380 kts 286°
2026-05-04 14:45 30.61380 -9.92104 20575 ft 381 kts 286°
2026-05-04 14:45 30.62249 -9.95029 21150 ft 383 kts 286°
2026-05-04 14:46 30.63129 -9.97969 21701 ft 385 kts 286°
2026-05-04 14:46 30.64019 -10.00921 22240 ft 387 kts 286°
2026-05-04 14:46 30.64905 -10.03840 22751 ft 389 kts 286°
2026-05-04 14:46 30.65812 -10.06817 23255 ft 391 kts 286°
2026-05-04 14:47 30.66727 -10.09817 23722 ft 393 kts 286°
2026-05-04 14:47 30.67643 -10.12818 24146 ft 394 kts 286°
2026-05-04 14:47 30.68551 -10.15792 24586 ft 396 kts 286°
2026-05-04 14:47 30.69473 -10.18815 25004 ft 397 kts 286°
2026-05-04 14:48 30.70398 -10.21849 25406 ft 399 kts 286°
2026-05-04 14:48 30.71328 -10.24906 25778 ft 401 kts 286°
2026-05-04 14:48 30.72260 -10.27969 26164 ft 403 kts 286°
2026-05-04 14:48 30.73195 -10.31044 26558 ft 404 kts 286°
2026-05-04 14:49 30.74134 -10.34139 26939 ft 405 kts 286°
2026-05-04 14:49 30.75062 -10.37196 27290 ft 407 kts 286°
2026-05-04 14:49 30.76003 -10.40303 27713 ft 407 kts 286°
2026-05-04 14:49 30.76945 -10.43410 28271 ft 403 kts 285°
2026-05-04 14:50 30.77862 -10.46439 28879 ft 399 kts 285°
2026-05-04 14:50 30.78783 -10.49483 29437 ft 396 kts 285°
2026-05-04 14:50 30.79695 -10.52504 29932 ft 395 kts 285°
2026-05-04 14:50 30.80603 -10.55514 30381 ft 393 kts 285°
2026-05-04 14:51 30.81504 -10.58507 30861 ft 391 kts 285°
2026-05-04 14:51 30.82402 -10.61491 31248 ft 390 kts 285°
2026-05-04 14:51 30.83286 -10.64432 31636 ft 388 kts 284°
2026-05-04 14:51 30.84175 -10.67393 32014 ft 387 kts 284°
2026-05-04 14:52 30.85955 -10.73330 32037 ft 386 kts 284°
2026-05-04 14:52 30.87711 -10.79195 32046 ft 384 kts 284°
2026-05-04 14:53 30.89471 -10.85088 32045 ft 384 kts 284°
2026-05-04 14:53 30.91220 -10.90953 32054 ft 384 kts 284°
2026-05-04 14:54 30.92975 -10.96849 32054 ft 384 kts 284°
2026-05-04 14:54 30.94716 -11.02711 32057 ft 385 kts 284°
2026-05-04 14:55 30.96468 -11.08617 32055 ft 385 kts 284°
2026-05-04 14:55 30.98218 -11.14531 32058 ft 386 kts 284°
2026-05-04 14:56 30.99965 -11.20443 32063 ft 386 kts 284°
2026-05-04 14:56 31.01703 -11.26336 32068 ft 386 kts 284°
2026-05-04 14:57 31.03448 -11.32265 32071 ft 387 kts 284°
2026-05-04 14:57 31.05197 -11.38221 32071 ft 388 kts 284°
2026-05-04 14:58 31.06934 -11.44146 32066 ft 388 kts 284°
2026-05-04 14:58 31.08682 -11.50120 32067 ft 389 kts 284°
2026-05-04 14:59 31.10431 -11.56107 32066 ft 389 kts 284°
2026-05-04 15:00 31.13047 -11.65084 32070 ft 389 kts 284°
2026-05-04 15:00 31.14782 -11.71053 32074 ft 389 kts 284°
2026-05-04 15:01 31.17377 -11.80006 32073 ft 389 kts 284°
2026-05-04 15:01 31.19113 -11.86007 32073 ft 389 kts 284°
2026-05-04 15:02 31.20835 -11.91971 32076 ft 388 kts 284°
2026-05-04 15:02 31.22563 -11.97969 32076 ft 388 kts 284°
2026-05-04 15:03 31.24273 -12.03919 32083 ft 389 kts 284°
2026-05-04 15:03 31.25996 -12.09924 32086 ft 390 kts 284°
2026-05-04 15:04 31.27720 -12.15948 32083 ft 391 kts 284°
2026-05-04 15:04 31.29446 -12.21987 32085 ft 392 kts 284°
2026-05-04 15:05 31.31164 -12.28009 32087 ft 392 kts 284°
2026-05-04 15:05 31.32893 -12.34082 32087 ft 393 kts 284°
2026-05-04 15:06 31.34618 -12.40154 32087 ft 393 kts 284°
2026-05-04 15:07 31.37196 -12.49251 32090 ft 393 kts 284°
2026-05-04 15:07 31.38918 -12.55341 32089 ft 393 kts 284°
2026-05-04 15:08 31.40628 -12.61404 32091 ft 393 kts 284°
2026-05-04 15:08 31.42330 -12.67450 32089 ft 392 kts 283°
2026-05-04 15:09 31.44042 -12.73544 32111 ft 393 kts 284°
2026-05-04 15:09 31.45749 -12.79632 32098 ft 393 kts 284°
2026-05-04 15:10 31.48306 -12.88780 32094 ft 395 kts 284°
2026-05-04 15:11 31.50867 -12.97965 32096 ft 396 kts 284°
2026-05-04 15:11 31.52568 -13.04082 32096 ft 397 kts 284°
2026-05-04 15:12 31.54283 -13.10264 32099 ft 397 kts 284°
2026-05-04 15:12 31.55704 -13.15396 32095 ft 398 kts 283°
2026-05-04 15:13 31.57411 -13.21569 32104 ft 398 kts 283°
2026-05-04 15:13 31.59104 -13.27707 32100 ft 398 kts 283°
2026-05-04 15:14 31.60765 -13.33743 32104 ft 397 kts 283°
2026-05-04 15:14 31.62467 -13.39939 32104 ft 397 kts 283°
2026-05-04 15:15 31.64151 -13.46082 32105 ft 398 kts 284°
2026-05-04 15:15 31.65847 -13.52285 32107 ft 399 kts 284°
2026-05-04 15:16 31.68381 -13.61576 32104 ft 400 kts 284°
2026-05-04 15:17 31.70928 -13.70945 32095 ft 401 kts 283°
2026-05-04 15:17 31.73465 -13.80304 32100 ft 402 kts 283°
2026-05-04 15:18 31.75151 -13.86544 32102 ft 402 kts 283°
2026-05-04 15:19 31.77690 -13.95961 32095 ft 402 kts 283°
2026-05-04 15:19 31.80214 -14.05357 32096 ft 403 kts 283°
2026-05-04 15:20 31.81900 -14.11649 32097 ft 403 kts 283°
2026-05-04 15:20 31.83580 -14.17934 32112 ft 403 kts 283°
2026-05-04 15:21 31.85257 -14.24219 32108 ft 404 kts 283°
2026-05-04 15:22 31.87783 -14.33716 32103 ft 405 kts 283°
2026-05-04 15:22 31.90300 -14.43208 32109 ft 406 kts 283°
2026-05-04 15:23 31.91974 -14.49540 32105 ft 407 kts 283°
2026-05-04 15:23 31.93653 -14.55905 32110 ft 407 kts 283°
2026-05-04 15:24 31.97002 -14.68646 32104 ft 408 kts 283°
2026-05-04 15:25 31.98678 -14.75041 32107 ft 408 kts 283°
2026-05-04 15:26 32.00684 -14.84710 32108 ft 404 kts 275°
2026-05-04 15:26 32.01827 -14.94551 32103 ft 405 kts 277°
2026-05-04 15:27 32.02529 -14.97743 31956 ft 399 kts 287°
2026-05-04 15:27 32.05089 -15.03555 30943 ft 401 kts 298°
2026-05-04 15:28 32.08017 -15.09176 29864 ft 401 kts 298°
2026-05-04 15:28 32.09448 -15.11930 29412 ft 396 kts 298°
2026-05-04 15:28 32.12288 -15.17440 28461 ft 389 kts 298°
2026-05-04 15:29 32.13689 -15.20175 27984 ft 387 kts 298°
2026-05-04 15:30 32.19151 -15.30885 26171 ft 376 kts 297°
2026-05-04 15:30 32.23142 -15.38736 24903 ft 369 kts 297°
2026-05-04 15:31 32.25778 -15.43930 24078 ft 365 kts 297°
2026-05-04 15:31 32.27068 -15.46473 23697 ft 363 kts 297°
2026-05-04 15:32 32.30912 -15.54065 22366 ft 356 kts 298°
2026-05-04 15:32 32.33440 -15.59067 21497 ft 351 kts 298°
2026-05-04 15:33 32.35932 -15.64002 20681 ft 347 kts 298°
2026-05-04 15:34 32.39608 -15.71297 19486 ft 342 kts 298°
2026-05-04 15:34 32.40827 -15.73718 19109 ft 340 kts 298°
2026-05-04 15:34 32.43223 -15.78482 18359 ft 337 kts 298°
2026-05-04 15:35 32.45604 -15.83223 17540 ft 332 kts 298°
2026-05-04 15:35 32.46779 -15.85565 17138 ft 329 kts 298°
2026-05-04 15:35 32.47948 -15.87894 16746 ft 327 kts 298°
2026-05-04 15:36 32.50246 -15.92482 15987 ft 323 kts 298°
2026-05-04 15:36 32.51390 -15.94767 15629 ft 321 kts 298°
2026-05-04 15:36 32.52527 -15.97040 15297 ft 319 kts 298°
2026-05-04 15:37 32.53653 -15.99294 14923 ft 317 kts 298°
2026-05-04 15:37 32.54778 -16.01546 14571 ft 316 kts 298°
2026-05-04 15:37 32.55894 -16.03781 14239 ft 314 kts 298°
2026-05-04 15:37 32.56989 -16.05975 13899 ft 312 kts 298°
2026-05-04 15:38 32.58094 -16.08191 13480 ft 310 kts 298°
2026-05-04 15:38 32.59187 -16.10384 13189 ft 305 kts 298°
2026-05-04 15:38 32.60251 -16.12516 13103 ft 294 kts 298°
2026-05-04 15:38 32.61275 -16.14571 13017 ft 284 kts 298°
2026-05-04 15:39 32.62260 -16.16549 12937 ft 273 kts 298°
2026-05-04 15:39 32.63197 -16.18432 12852 ft 264 kts 298°
2026-05-04 15:39 32.65043 -16.22153 12062 ft 270 kts 298°
2026-05-04 15:40 32.66016 -16.24116 11476 ft 280 kts 298°
2026-05-04 15:40 32.66998 -16.26098 11010 ft 286 kts 298°
2026-05-04 15:40 32.68039 -16.28198 10276 ft 302 kts 299°
2026-05-04 15:40 32.69128 -16.30398 9619 ft 312 kts 299°
2026-05-04 15:41 32.70217 -16.32595 9297 ft 308 kts 299°
2026-05-04 15:41 32.71322 -16.34825 8542 ft 318 kts 299°
2026-05-04 15:41 32.72459 -16.37123 7812 ft 326 kts 299°
2026-05-04 15:41 32.73608 -16.39447 7074 ft 333 kts 299°
2026-05-04 15:42 32.74792 -16.41841 6343 ft 339 kts 299°
2026-05-04 15:42 32.75993 -16.44272 5599 ft 343 kts 299°
2026-05-04 15:42 32.77205 -16.46726 4857 ft 345 kts 299°
2026-05-04 15:42 32.78401 -16.49150 4573 ft 334 kts 299°
2026-05-04 15:43 32.79664 -16.51434 4174 ft 328 kts 307°
2026-05-04 15:43 32.81115 -16.53420 4342 ft 301 kts 310°
2026-05-04 15:43 32.82432 -16.55163 4630 ft 265 kts 310°
2026-05-04 15:43 32.83594 -16.56725 4550 ft 245 kts 306°
2026-05-04 15:44 32.84182 -16.58514 4399 ft 226 kts 270°
2026-05-04 15:44 32.83898 -16.60266 4301 ft 208 kts 248°
2026-05-04 15:44 32.83201 -16.61707 4186 ft 194 kts 228°
2026-05-04 15:44 32.82284 -16.62814 3959 ft 189 kts 224°
2026-05-04 15:45 32.81310 -16.63971 3271 ft 208 kts 224°
2026-05-04 15:45 32.80279 -16.65186 2891 ft 206 kts 224°
2026-05-04 15:45 32.79279 -16.66357 2621 ft 196 kts 224°
2026-05-04 15:45 32.78324 -16.67473 2344 ft 188 kts 223°
2026-05-04 15:46 32.77411 -16.68539 2100 ft 180 kts 224°
2026-05-04 15:46 32.76541 -16.69556 1858 ft 174 kts 223°
2026-05-04 15:46 32.75715 -16.70521 1626 ft 160 kts 224°
2026-05-04 15:46 32.74954 -16.71410 1464 ft 145 kts 224°
2026-05-04 15:47 32.74235 -16.72251 1270 ft 144 kts 224°
2026-05-04 15:47 32.73519 -16.73088 1058 ft 142 kts 223°
2026-05-04 15:47 32.72822 -16.73903 885 ft 143 kts 222°
2026-05-04 15:47 32.72112 -16.74732 708 ft 142 kts 221°
2026-05-04 15:48 32.71405 -16.75559 484 ft 141 kts 222°
2026-05-04 15:48 32.70714 -16.76381 267 ft 141 kts 221°
2026-05-04 15:48 32.69654 -16.77599 175 ft 60 kts 223°
2026-05-04 15:49 32.69444 -16.77846 175 ft 16 kts 225°
2026-05-04 15:49 32.69368 -16.77936 175 ft 15 kts 224°
2026-05-04 15:49 32.69287 -16.77956 175 ft 14 kts 117°
2026-05-04 15:49 32.69305 -16.77845 175 ft 14 kts 52°
2026-05-04 15:50 32.69353 -16.77782 175 ft 10 kts 44°
2026-05-04 15:50 32.69363 -16.77727 175 ft 0 kts 136°
2026-05-04 15:50 32.69342 -16.77705 175 ft 6 kts 139°
2026-05-04 15:51 32.69338 -16.77701 175 ft 0 kts 139°